Regional Weather Roundup
Issued by NWS

Home | Current Version | Previous Version | Text Only | Print | Product List | Glossary Off
Versions: 1 2 3 4 5 6 7 8 9 10 11 12 13 14 15 16 17 18 19 20 21 22 23 24 25 26 27 28 29 30 31 32 33 34 35 36 37 38 39 40 41 42 43 44 45 46 47 48 49 50

000
ASUS43 KDTX 232310
RWRMI
MICHIGAN HOURLY REGIONAL WEATHER ROUNDUP
NATIONAL WEATHER SERVICE DETROIT/PONTIAC MI
700 PM EDT TUE AUG 23 2016

NOTE: "FAIR" INDICATES FEW OR NO CLOUDS BELOW 12,000 FEET WITH NO
SIGNIFICANT WEATHER AND/OR OBSTRUCTION TO VISIBILITY.

MIZ047>049-052>055-059>063-066>070-074>076-081>083-240000-
SOUTHEAST LOWER MICHIGAN

CITY           SKY/WX    TMP DP  RH WIND       PRES   REMARKS
ADRIAN         MOSUNNY   78  62  57 S8        30.21F
ALMA           MOSUNNY   78  63  59 S10       30.18S
ANN ARBOR      MOSUNNY   77  60  55 S7        30.20F
BAD AXE        SUNNY     76  59  54 SW3       30.18F
CARO           SUNNY     77  62  58 SW7       30.18S
DETROIT CITY   SUNNY     78  60  53 S12       30.20F
DETROIT        PTSUNNY   79  59  50 SW13      30.21F
FLINT          SUNNY     80  60  50 SW6       30.19F
GROSSE ILE     SUNNY     77  63  61 S9        30.20F
HILLSDALE      SUNNY     76  58  54 S6        30.21S
HOWELL         SUNNY     77  58  51 SW8       30.20F

CITY           SKY/WX    TMP DP  RH WIND       PRES   REMARKS
JACKSON        MOSUNNY   77  58  51 SW8       30.21S
LAMBERTVILLE   SUNNY     79  58  47 SW6       30.22S
LANSING        MOSUNNY   78  57  48 S10       30.19F
LAPEER         FAIR      77  59  53 S6        30.20S
MASON          SUNNY     77  59  53 SW5       30.21S
MONROE         SUNNY     79  61  54 SW7       30.20S
MT. CLEMENS    MOSUNNY   77  62  60 S12       30.18S
PONTIAC        MOSUNNY   77  58  51 SW9       30.20F
PORT HURON     CLOUDY    75  63  64 S7        30.20S
TRI CITIES     SUNNY     77  61  57 SW12      30.18F
MIDLAND        FAIR      77  60  55 S6        30.16F
TROY           SUNNY     81  55  40 SW10      30.22S
SAGINAW HB     SUNNY     79  59  50 SW8       30.17S
$$
MIZ043>046-050>051-056>058-064>065-071>073-077>080-240000-
SOUTHWEST LOWER MICHIGAN

CITY           SKY/WX    TMP DP  RH WIND       PRES   REMARKS
BATTLE CREEK   SUNNY     75  60  59 S10       30.20S
BENTON HARBOR  MOSUNNY   79  59  50 S10       30.16F
BIG RAPIDS     MOSUNNY   76  58  51 SW9       30.17S
COLDWATER      SUNNY     76  58  52 S3        30.21R
FREMONT        FAIR      76  55  47 SW8       30.17R
HOLLAND        SUNNY     78  62  57 SW8       30.18S
GRAND RAPIDS   PTSUNNY   78  58  49 S12       30.18S
IONIA          FAIR      77  56  46 S7        30.17S
KALAMAZOO      MOSUNNY   78  59  51 S12       30.19S
LUDINGTON      SUNNY     75  61  60 S13       30.13S
MARSHALL       MOSUNNY   77  59  53 S5        30.20S
MOUNT PLEASANT PTSUNNY   78  60  53 S7        30.16F
MUSKEGON       PTSUNNY   77  62  59 S8        30.17R
SOUTH HAVEN    SUNNY     80  60  51 S7        30.17S
$$
MIZ016>042-240000-
NORTHERN LOWER MICHIGAN

CITY           SKY/WX    TMP DP  RH WIND       PRES   REMARKS
ALPENA         SUNNY     83  56  39 SW9       30.11S
BEAVER ISLAND  MOSUNNY   75  60  58 SW15G24   30.11R
BELLAIRE       SUNNY     80  58  48 SW3       30.12R
CADILLAC       MOSUNNY   75  58  55 SW13      30.16S
CHARLEVOIX     MOSUNNY   79  60  52 SW8       30.14R
FRANKFORT      MOSUNNY   77  59  54 S7G18     30.11F
GAYLORD        CLOUDY    79  58  48 SW10      30.14S
GRAYLING       CLOUDY    79  58  49 S10       30.16R
HARBOR SPRINGS MOSUNNY   77  64  65 W7        30.11R
HOUGHTON LAKE  MOSUNNY   76  57  51 SW10      30.17S
MANISTEE       SUNNY     77  59  53 S10G17    30.12S
OSCODA         SUNNY     78  62  57 S10       30.14R
PELLSTON       CLOUDY    77  61  57 W8        30.11R
ROGERS CITY    SUNNY     77  62  58 E6        30.11S
TRAVERSE CITY  PTSUNNY   79  59  50 SW10G17   30.10S
$$
MIZ007>008-015-240000-
EASTERN UPPER MICHIGAN

CITY           SKY/WX    TMP DP  RH WIND       PRES   REMARKS
KINROSS        SUNNY     77  58  51 SW10G17   30.10R
MACKINAC ISLAN SUNNY     73  63  69 W9        30.11R
NEWBERRY       SUNNY     74  60  60 SW21G30   30.07S
S. S. MARIE    SUNNY     78  61  55 SW8G20    30.08S
$$
MIZ004>006-011>014-085-240000-
CENTRAL UPPER MICHIGAN

CITY           SKY/WX    TMP DP  RH WIND       PRES   REMARKS
MANISTIQUE     SUNNY     69  64  86 S8        30.08S
ESCANABA       SUNNY     75  65  70 S14       30.05R
MENOMINEE      MOSUNNY  N/A N/A N/A SW13      30.05S
SAWYER-GWINN   SUNNY     79  61  53 SW15      30.03R
$$
MIZ001>003-009>011-084-240000-
WESTERN UPPER MICHIGAN

CITY           SKY/WX    TMP DP  RH WIND       PRES   REMARKS
IRON MOUNTAIN  MOSUNNY   78  61  55 S12G22    30.03S
HOUGHTON       SUNNY     83  61  47 S8        29.94S
COPPER HARBOR    N/A     81  61  50 SW8G16    29.91S
IRONWOOD       SUNNY     79  62  56 S10G17    29.96
$$

ABBREVIATIONS USED IN REMARKS
   TC - TEMPERATURE IN CELSIUS
  WCI - WIND CHILL INDEX
   HX - HEAT INDEX
  VSB - VISIBILITY





USA.gov is the U.S. government's official web portal to all federal, state and local government web resources and services.